Location: Newark
(18.8198°N, 82.1672°E)
Time: 02:50:54
(UTC+00:00)

Hubble Space Telescope - Visible Passes

Search period start: 22 August 2019 00:00
Search period end: 01 September 2019 00:00
Orbit: 536 x 540 km, 28.5° (Epoch: 21 August)

Date Brightness Start Highest point End Pass type
(mag) Time Alt. Az. Time Alt. Az. Time Alt. Az.
22 Aug 2.3 13:22:20 10° NW 13:25:50 26° N 13:29:20 10° ENE visible
22 Aug 2.7 15:03:12 10° WNW 15:05:13 28° WNW 15:05:13 28° WNW visible
23 Aug 2.1 13:11:46 10° NW 13:15:24 30° NNE 13:19:02 10° ENE visible
23 Aug 2.2 14:52:39 10° WNW 14:55:12 37° WNW 14:55:12 37° WNW visible
24 Aug 1.7 14:42:10 10° WNW 14:45:14 46° W 14:45:14 46° W visible
25 Aug 1.5 14:31:43 10° W 14:35:19 46° SW 14:35:19 46° SW visible
26 Aug 1.8 14:21:21 10° W 14:25:07 35° SSW 14:25:28 34° SSW visible
27 Aug 2.3 14:11:06 10° W 14:14:32 26° SSW 14:15:40 23° S visible
28 Aug 2.8 14:00:59 10° WSW 14:03:57 19° SSW 14:05:56 14° S visible
29 Aug 3.2 13:51:10 10° WSW 13:53:22 14° SSW 13:55:35 10° S visible
30 Aug 3.6 13:42:46 10° SSW 13:42:47 10° SSW 13:42:48 10° SSW visible
